When you browse on this site, cookies collect data to enhance your experience and personalize the content and advertising you see.
Visit our Privacy Policy to learn more. By continuing to use the site, you agree to this use of cookies and data.
  • In Österreich
  • Länderverzeichnis
  • Für 7 Tage
  • Wassertemperatur
  • Satellitenkarten
  • Wetterkarte
  • News
  • Widgets
  • user-avatar
    Anmelden

    Stündliche Wetter Escaldes-Engordany

    Heute, 27 Juni, Donnerstag

    Zeit Temperatur Niederschläge Wind Luftdruck Luftfeuchtigkeit
    00:00 +20°C° 0 mm 2 m/S 645 mmHg 35%
    01:00 +20°C° 0 mm 2 m/S 645 mmHg 33%
    02:00 +20°C° 0 mm 2 m/S 645 mmHg 30%
    03:00 +20°C° 0 mm 2 m/S 644 mmHg 28%
    04:00 +20°C° 0 mm 2 m/S 645 mmHg 31%
    05:00 +21°C° 0 mm 2 m/S 645 mmHg 34%
    06:00 +23°C° 0 mm 1 m/S 646 mmHg 36%
    07:00 +26°C° 0 mm 1 m/S 646 mmHg 31%
    08:00 +28°C° 0 mm 1 m/S 647 mmHg 26%
    09:00 +31°C° 0 mm 1 m/S 648 mmHg 21%
    10:00 +32°C° 0 mm 1 m/S 649 mmHg 20%
    11:00 +34°C° 0 mm 2 m/S 649 mmHg 19%
    12:00 +35°C° 0 mm 2 m/S 649 mmHg 17%
    13:00 +34°C° 0 mm 2 m/S 648 mmHg 19%
    14:00 +33°C° 0 mm 1 m/S 648 mmHg 20%
    15:00 +33°C° 0 mm 1 m/S 647 mmHg 22%
    16:00 +31°C° 0 mm 1 m/S 647 mmHg 28%
    17:00 +30°C° 0 mm 1 m/S 646 mmHg 35%
    18:00 +29°C° 0 mm 1 m/S 645 mmHg 42%
    19:00 +26°C° 0 mm 1 m/S 645 mmHg 42%
    20:00 +24°C° 0 mm 1 m/S 644 mmHg 43%
    21:00 +22°C° 0 mm 1 m/S 644 mmHg 43%
    22:00 +22°C° 0 mm 1 m/S 644 mmHg 42%
    23:00 +21°C° 0 mm 2 m/S 643 mmHg 42%

    Morgen, 28 Juni, Freitag

    Zeit Temperatur Niederschläge Wind Luftdruck Luftfeuchtigkeit
    00:00 +20°C° 0 mm 2 m/S 643 mmHg 41%
    01:00 +20°C° 0 mm 2 m/S 643 mmHg 38%
    02:00 +20°C° 0 mm 2 m/S 643 mmHg 34%
    03:00 +20°C° 0 mm 2 m/S 643 mmHg 31%
    04:00 +20°C° 0 mm 2 m/S 643 mmHg 32%
    05:00 +21°C° 0 mm 2 m/S 643 mmHg 33%
    06:00 +23°C° 0 mm 2 m/S 643 mmHg 34%
    07:00 +25°C° 0 mm 1 m/S 644 mmHg 30%
    08:00 +28°C° 0 mm 1 m/S 645 mmHg 25%
    09:00 +31°C° 0 mm 1 m/S 646 mmHg 20%
    10:00 +32°C° 0 mm 1 m/S 646 mmHg 19%
    11:00 +32°C° 0 mm 1 m/S 646 mmHg 19%
    12:00 +33°C° 0 mm 1 m/S 646 mmHg 18%
    13:00 +34°C° 0 mm 2 m/S 645 mmHg 19%
    14:00 +34°C° 0 mm 2 m/S 645 mmHg 20%
    15:00 +34°C° 0 mm 2 m/S 645 mmHg 21%
    16:00 +31°C° 0 mm 2 m/S 644 mmHg 29%
    17:00 +30°C° 0 mm 2 m/S 644 mmHg 37%
    18:00 +28°C° 0 mm 2 m/S 643 mmHg 46%
    19:00 +26°C° 0 mm 1 m/S 643 mmHg 45%
    20:00 +25°C° 0 mm 1 m/S 642 mmHg 44%
    21:00 +23°C° 0 mm 1 m/S 642 mmHg 43%
    22:00 +22°C° 0 mm 1 m/S 642 mmHg 42%
    23:00 +22°C° 0 mm 1 m/S 642 mmHg 41%

    übermorgen, 29 Juni, Samstag

    Zeit Temperatur Niederschläge Wind Luftdruck Luftfeuchtigkeit
    00:00 +22°C° 0 mm 1 m/S 642 mmHg 40%
    01:00 +21°C° 0 mm 1 m/S 641 mmHg 40%
    02:00 +21°C° 0 mm 1 m/S 641 mmHg 40%
    03:00 +21°C° 0 mm 1 m/S 641 mmHg 40%
    04:00 +22°C° 0 mm 1 m/S 641 mmHg 42%
    05:00 +23°C° 0 mm 1 m/S 642 mmHg 44%
    06:00 +23°C° 0 mm 1 m/S 642 mmHg 45%
    07:00 +26°C° 0 mm 1 m/S 643 mmHg 39%
    08:00 +28°C° 0 mm 1 m/S 644 mmHg 32%
    09:00 +31°C° 0 mm 1 m/S 645 mmHg 25%
    10:00 +31°C° 0 mm 1 m/S 645 mmHg 26%
    11:00 +31°C° 0 mm 1 m/S 645 mmHg 27%
    12:00 +32°C° 0 mm 1 m/S 645 mmHg 27%
    13:00 +31°C° 0 mm 1 m/S 644 mmHg 29%
    14:00 +30°C° 0 mm 1 m/S 644 mmHg 31%
    15:00 +30°C° 0 mm 1 m/S 644 mmHg 33%
    16:00 +29°C° 0 mm 1 m/S 643 mmHg 39%
    17:00 +28°C° 0 mm 1 m/S 643 mmHg 44%
    18:00 +27°C° 0 mm 1 m/S 643 mmHg 49%
    19:00 +25°C° 0 mm 1 m/S 643 mmHg 54%
    20:00 +23°C° 0 mm 1 m/S 643 mmHg 59%
    21:00 +22°C° 0 mm 1 m/S 643 mmHg 65%
    22:00 +21°C° 0 mm 1 m/S 643 mmHg 63%
    23:00 +21°C° 0 mm 1 m/S 643 mmHg 61%

    30 Juni, Sonntag

    Zeit Temperatur Niederschläge Wind Luftdruck Luftfeuchtigkeit
    00:00 +20°C° 0 mm 1 m/S 643 mmHg 59%
    01:00 +20°C° 0 mm 1 m/S 643 mmHg 56%
    02:00 +20°C° 0 mm 1 m/S 643 mmHg 53%
    03:00 +20°C° 0 mm 1 m/S 643 mmHg 50%
    04:00 +21°C° 0 mm 1 m/S 643 mmHg 51%
    05:00 +22°C° 0 mm 1 m/S 643 mmHg 53%
    06:00 +23°C° 0 mm 1 m/S 644 mmHg 54%
    07:00 +25°C° 0 mm 1 m/S 645 mmHg 46%
    08:00 +28°C° 0 mm 1 m/S 646 mmHg 37%
    09:00 +30°C° 0 mm 1 m/S 647 mmHg 29%
    10:00 +31°C° 0 mm 1 m/S 647 mmHg 27%
    11:00 +32°C° 0 mm 1 m/S 647 mmHg 24%
    12:00 +34°C° 0 mm 2 m/S 647 mmHg 22%
    13:00 +32°C° 0 mm 1 m/S 647 mmHg 24%
    14:00 +32°C° 0 mm 1 m/S 646 mmHg 26%
    15:00 +31°C° 0 mm 1 m/S 646 mmHg 28%
    16:00 +29°C° 0.1 mm 1 m/S 645 mmHg 38%
    17:00 +27°C° 0.1 mm 2 m/S 645 mmHg 48%
    18:00 +25°C° 0.1 mm 2 m/S 644 mmHg 58%
    19:00 +23°C° 0.1 mm 2 m/S 644 mmHg 59%
    20:00 +21°C° 0.1 mm 2 m/S 643 mmHg 60%
    21:00 +19°C° 0.1 mm 2 m/S 643 mmHg 62%
    22:00 +19°C° 0 mm 2 m/S 643 mmHg 58%
    23:00 +19°C° 0 mm 2 m/S 643 mmHg 54%

    1 Juli, Montag

    Zeit Temperatur Niederschläge Wind Luftdruck Luftfeuchtigkeit
    00:00 +20°C° 0 mm 1 m/S 643 mmHg 50%
    01:00 +20°C° 0 mm 1 m/S 643 mmHg 49%
    02:00 +20°C° 0 mm 1 m/S 643 mmHg 48%
    03:00 +20°C° 0 mm 1 m/S 642 mmHg 47%
    04:00 +21°C° 0 mm 1 m/S 643 mmHg 49%
    05:00 +22°C° 0 mm 1 m/S 643 mmHg 51%
    06:00 +22°C° 0 mm 1 m/S 644 mmHg 53%
    07:00 +24°C° 0 mm 1 m/S 645 mmHg 47%
    08:00 +26°C° 0 mm 1 m/S 645 mmHg 42%
    09:00 +28°C° 0 mm 1 m/S 646 mmHg 36%
    10:00 +29°C° 0 mm 2 m/S 646 mmHg 35%
    11:00 +30°C° 0 mm 2 m/S 646 mmHg 33%
    12:00 +31°C° 0 mm 2 m/S 646 mmHg 32%
    13:00 +28°C° 0.9 mm 2 m/S 645 mmHg 42%
    14:00 +26°C° 0.9 mm 2 m/S 644 mmHg 51%
    15:00 +24°C° 0.9 mm 2 m/S 643 mmHg 61%
    16:00 +21°C° 2.1 mm 2 m/S 642 mmHg 69%
    17:00 +19°C° 2.1 mm 2 m/S 642 mmHg 78%
    18:00 +17°C° 2.1 mm 3 m/S 641 mmHg 86%
    19:00 +17°C° 0.3 mm 2 m/S 642 mmHg 84%
    20:00 +17°C° 0.3 mm 2 m/S 642 mmHg 82%
    21:00 +16°C° 0.3 mm 1 m/S 642 mmHg 80%
    22:00 +16°C° 0.1 mm 1 m/S 642 mmHg 81%
    23:00 +16°C° 0.1 mm 1 m/S 642 mmHg 83%

    2 Juli, Dienstag

    Zeit Temperatur Niederschläge Wind Luftdruck Luftfeuchtigkeit
    00:00 +16°C° 0.1 mm 1 m/S 642 mmHg 84%
    01:00 +16°C° 0 mm 1 m/S 642 mmHg 84%
    02:00 +16°C° 0 mm 1 m/S 641 mmHg 83%
    03:00 +15°C° 0 mm 1 m/S 641 mmHg 83%
    04:00 +16°C° 0 mm 1 m/S 642 mmHg 81%
    05:00 +18°C° 0 mm 1 m/S 642 mmHg 80%
    06:00 +19°C° 0 mm 1 m/S 643 mmHg 78%
    07:00 +21°C° 0.1 mm 1 m/S 643 mmHg 70%
    08:00 +23°C° 0.1 mm 1 m/S 644 mmHg 62%
    09:00 +25°C° 0.1 mm 1 m/S 644 mmHg 53%
    10:00 +26°C° 0.4 mm 1 m/S 644 mmHg 51%
    11:00 +26°C° 0.4 mm 2 m/S 644 mmHg 48%
    12:00 +27°C° 0.4 mm 2 m/S 644 mmHg 46%
    13:00 +27°C° 1.1 mm 2 m/S 644 mmHg 47%
    14:00 +26°C° 1.1 mm 1 m/S 643 mmHg 49%
    15:00 +26°C° 1.1 mm 1 m/S 643 mmHg 50%
    16:00 +25°C° 0.4 mm 1 m/S 642 mmHg 54%
    17:00 +24°C° 0.4 mm 1 m/S 642 mmHg 58%
    18:00 +24°C° 0.4 mm 1 m/S 642 mmHg 62%
    19:00 +21°C° 0.2 mm 1 m/S 641 mmHg 68%
    20:00 +19°C° 0.2 mm 1 m/S 641 mmHg 74%
    21:00 +15°C° 0.2 mm 0 m/S 641 mmHg 80%
    22:00 +16°C° 0.7 mm 1 m/S 640 mmHg 81%
    23:00 +15°C° 0.7 mm 1 m/S 640 mmHg 82%
    Mehr zeigen